Temperature
5 6 6 5 5 6 6 6 7 8 8 8 8 8 7 8 7 7 7 6 6 6 6 5 5 5 5 6 6 6 6 6 6 6 6 6 6 6 5 5 5 5 5 5
4 5 6 6 6 6 6 7 7 8 8 8 7 8 7 7 7 6 6 5 5 5 5 5 5 5 5 5 5 6 6 6 6 5 5 5 5 5 5 5 5 5 5 5
3 4 5 4 5 5 5 6 6 6 7 6 6 6 6 6 6 5 5 5 4 4 4 4 5 5 5 5 5 5 5 5 5 5 5 5 5 5 5 5 5 4 4 5
3 4 4 5 6 6 5 5 6 6 6 6 6 6 6 6 5 5 4 4 4 4 4 4 4 4 4 5 5 5 5 5 5 5 5 5 5 5 5 5 4 4 4 4
3 3 4 5 5 5 5 4 5 5 5 5 6 6 5 5 5 4 4 4 3 3 3 4 4 4 4 4 4 5 5 5 5 5 5 5 5 4 4 4 4 4 4 4
3 4 4 4 5 6 5 4 4 5 4 4 4 3 4 4 4 4 4 3 3 3 3 3 4 4 4 4 4 4 4 5 4 4 4 4 4 4 4 4 4 4 4 4
2 3 4 3 4 5 4 3 4 4 4 4 3 3 4 4 3 3 3 3 3 3 3 3 3 3 3 4 4 4 4 4 4 4 4 4 4 4 4 4 4 3 3 3
2 2 3 2 3 2 2 3 4 3 3 3 3 3 3 3 2 2 2 2 2 2 2 2 2 3 3 3 3 3 3 4 4 3 3 3 3 3 3 3 3 3 3 3
2 2 2 3 2 2 3 2 2 2 2 3 2 2 2 2 1 1 1 1 1 1 1 2 2 2 2 2 3 3 3 3 3 3 3 3 3 3 3 3 2 2 2 2
2 2 2 2 2 2 2 1 1 1 1 2 1 1 1 1 1 1 1 1 1 1 1 1 1 1 2 2 2 2 3 3 3 3 2 2 2 2 2 2 2 2 2 2
1 1 2 1 1 1 1 1 1 1 1 1 1 0 0 -0 -0 0 0 0 0 1 1 0 1 1 1 2 2 2 2 2 2 2 2 2 2 2 2 1 1 1 1 1
0 1 0 0 0 0 -0 -0 -0 -0 -0 -0 -0 -0 -0 -1 -1 -1 -0 -0 -0 0 0 0 0 1 1 1 1 1 1 1 1 1 1 1 1 1 1 1 1 1 1 1
0 0 0 -0 -1 -1 -1 -1 -1 -1 -1 -1 -1 -1 -1 -1 -1 -1 -1 -1 -1 -0 -0 -0 -0 0 1 1 1 1 1 1 1 1 1 1 1 1 1 0 0 0 0 -0
-1 -0 -1 -1 -2 -1 -1 -1 -1 -2 -2 -2 -2 -2 -2 -1 -1 -1 -1 -1 -1 -1 -1 -1 -0 -0 0 0 0 0 0 0 0 0 0 0 0 0 -0 -0 -0 -0 -0 -1
-1 -1 -2 -2 -2 -2 -2 -2 -2 -2 -2 -2 -2 -2 -2 -2 -2 -2 -2 -1 -1 -1 -1 -1 -1 -0 -0 -0 0 0 -0 -0 -0 -0 -0 -0 -0 -0 -1 -1 -1 -1 -1 -1
-2 -2 -2 -3 -3 -3 -3 -3 -3 -3 -3 -3 -3 -3 -2 -2 -2 -2 -2 -2 -2 -1 -1 -1 -1 -1 -1 -0 -0 -0 -0 -1 -1 -1 -1 -1 -1 -1 -1 -1 -1 -1 -1 -1
-3 -3 -4 -4 -4 -4 -4 -4 -3 -3 -3 -3 -3 -3 -3 -3 -3 -2 -2 -2 -2 -2 -1 -1 -1 -1 -1 -1 -1 -1 -1 -1 -1 -1 -1 -1 -1 -2 -2 -2 -2 -2 -2 -2
-3 -3 -4 -4 -4 -4 -4 -4 -4 -4 -4 -4 -4 -3 -3 -3 -3 -3 -3 -3 -2 -2 -2 -2 -2 -2 -1 -1 -1 -1 -1 -1 -1 -1 -2 -2 -2 -2 -2 -2 -2 -2 -2 -2
-4 -4 -4 -4 -4 -4 -4 -4 -4 -4 -4 -4 -4 -4 -4 -4 -4 -4 -3 -3 -3 -3 -3 -3 -3 -2 -2 -2 -2 -2 -2 -2 -2 -2 -2 -2 -2 -3 -3 -2 -2 -2 -2 -3
-5 -4 -4 -4 -4 -4 -5 -5 -5 -5 -5 -5 -4 -4 -4 -4 -4 -4 -4 -4 -4 -4 -4 -4 -3 -3 -3 -2 -2 -2 -2 -2 -3 -3 -3 -3 -3 -3 -3 -3 -3 -3 -3 -3
-5 -5 -5 -5 -5 -5 -5 -5 -5 -5 -5 -5 -5 -5 -5 -5 -5 -5 -5 -5 -4 -4 -4 -4 -4 -4 -3 -3 -3 -3 -3 -3 -3 -3 -3 -3 -3 -3 -4 -4 -4 -4 -4 -4
-6 -6 -6 -5 -5 -5 -5 -5 -5 -5 -5 -5 -5 -5 -5 -5 -5 -5 -5 -5 -5 -5 -5 -5 -4 -4 -4 -4 -4 -4 -4 -4 -4 -4 -4 -4 -4 -4 -4 -4 -4 -4 -4 -4
-6 -6 -6 -6 -6 -6 -6 -6 -6 -6 -6 -6 -6 -6 -5 -5 -6 -6 -6 -5 -5 -5 -5 -5 -5 -5 -4 -4 -4 -4 -4 -4 -4 -4 -4 -4 -5 -5 -5 -5 -5 -5 -5 -5
-7 -7 -7 -7 -7 -6 -6 -6 -6 -6 -6 -6 -6 -6 -6 -6 -6 -6 -6 -6 -6 -6 -6 -5 -5 -5 -5 -5 -5 -5 -5 -5 -5 -5 -5 -5 -5 -5 -5 -5 -5 -5 -5 -5
-8 -7 -7 -7 -7 -7 -7 -7 -7 -7 -7 -7 -7 -7 -6 -6 -6 -6 -6 -6 -6 -6 -6 -6 -6 -6 -5 -5 -5 -5 -5 -5 -5 -5 -5 -5 -5 -5 -5 -6 -6 -6 -6 -6
-8 -8 -8 -8 -8 -8 -8 -8 -8 -7 -7 -7 -7 -7 -7 -7 -7 -7 -7 -7 -7 -7 -7 -6 -6 -6 -6 -6 -5 -5 -5 -5 -6 -6 -6 -6 -6 -6 -6 -6 -6 -6 -6 -6
-9 -8 -8 -8 -8 -8 -8 -8 -8 -8 -8 -8 -8 -8 -8 -8 -7 -8 -7 -7 -7 -7 -7 -7 -7 -6 -6 -6 -6 -6 -6 -6 -6 -6 -6 -6 -6 -6 -6 -6 -6 -6 -6 -6
Wind_Speed
6 7 4 5 8 8 9 8 6 5 5 3 2 1 3 3 3 3 3 3 3 3 2 2 2 2 2 2 2 1 1 1 1 1 1 0 1 1 0 1 1 1 1 1
5 7 5 6 7 9 9 8 8 6 5 1 1 2 3 2 2 3 3 3 3 3 3 2 2 2 2 2 2 1 1 1 1 1 1 0 0 0 0 1 1 0 1 1
3 4 4 5 6 7 7 6 6 7 5 1 1 1 1 1 2 2 2 3 3 4 3 3 2 2 2 2 2 2 1 1 0 1 1 1 0 0 0 1 1 0 1 1
1 1 4 3 1 4 5 4 3 2 2 1 1 1 1 2 3 2 2 2 2 3 4 4 3 2 2 2 1 1 1 1 0 0 1 1 0 0 0 0 1 1 1 1
2 3 5 2 2 1 3 5 3 2 2 2 2 1 2 4 3 2 2 2 2 2 3 4 4 3 2 2 2 2 2 2 1 0 1 1 1 0 1 1 1 1 1 1
3 3 3 2 3 3 1 3 2 1 1 0 2 0 2 3 3 3 3 3 3 3 3 3 4 4 3 2 2 2 2 2 2 1 1 1 1 1 1 1 1 1 2 1
4 3 3 2 4 3 2 4 5 2 0 1 1 1 1 2 3 4 4 4 3 3 3 3 4 4 3 3 3 3 2 2 2 2 1 2 2 2 2 2 2 2 2 2
2 3 4 3 3 1 2 4 4 4 3 2 2 3 3 3 3 4 4 4 4 3 4 4 4 4 4 3 3 3 3 3 3 3 2 3 3 3 3 3 2 2 3 3
3 2 1 1 1 3 4 4 5 5 4 2 2 2 3 3 3 4 4 3 3 3 3 4 4 4 4 4 3 3 3 3 3 3 3 3 3 3 3 3 2 2 2 2
2 2 1 2 3 5 5 5 5 4 4 4 2 2 3 2 3 3 4 4 4 3 3 4 4 4 4 4 3 3 3 3 3 3 3 3 3 3 2 2 2 2 2 2
3 2 2 2 4 5 5 5 5 5 4 3 3 2 2 2 2 2 3 3 3 3 3 4 4 5 5 4 4 3 3 3 3 3 3 3 3 3 3 2 2 2 1 1
3 2 2 3 4 4 4 4 4 4 4 4 3 2 3 2 2 2 3 3 3 4 4 4 4 5 5 5 4 4 3 3 3 3 3 3 4 4 6 5 7 6 6 4
3 3 2 2 3 4 4 4 3 3 2 3 3 2 2 2 3 3 3 3 3 3 4 4 4 5 5 5 4 4 4 4 3 3 3 3 3 3 3 5 7 8 8 8
3 3 2 3 3 3 3 3 3 3 3 3 2 2 2 2 3 3 3 3 3 3 3 4 4 5 5 5 5 5 4 4 4 3 3 3 3 3 3 3 3 4 5 7
4 3 2 2 3 3 3 3 3 3 3 3 3 2 2 2 2 2 3 2 3 3 3 4 4 5 5 5 5 4 4 3 3 3 3 3 3 3 3 3 3 3 3 4
3 2 2 2 3 3 3 3 3 3 2 2 2 2 2 2 2 2 2 2 2 2 3 3 3 4 4 4 4 3 3 4 4 3 3 3 3 3 3 3 3 2 3 3
1 1 1 2 3 3 3 3 3 2 2 2 2 2 2 2 2 2 2 2 2 2 3 3 3 3 4 4 3 3 2 3 4 3 3 3 3 3 2 2 2 2 2 3
2 3 2 3 3 3 3 3 3 3 2 2 1 1 1 1 1 1 2 2 3 4 4 3 3 3 4 4 3 3 2 2 2 3 3 3 2 2 2 2 2 2 2 3
3 2 2 2 2 2 2 2 2 2 2 1 1 1 1 1 1 1 2 2 3 3 3 3 4 4 3 4 4 3 3 3 3 3 2 3 3 2 2 2 2 2 2 2
3 3 3 2 2 1 2 2 2 2 2 1 1 1 1 1 1 1 2 2 1 1 1 2 3 2 2 3 4 2 3 3 3 2 2 2 2 2 2 2 1 2 2 2
3 3 3 3 3 2 2 2 2 2 2 1 0 0 1 1 1 1 1 1 2 2 2 2 2 2 2 2 3 2 2 2 2 2 2 2 2 2 2 2 2 2 2 2
2 2 3 3 3 3 3 2 2 2 2 2 1 1 1 1 1 1 1 1 1 2 2 1 1 2 2 2 1 2 2 2 2 2 2 1 1 1 1 1 2 2 2 2
3 3 3 2 2 3 3 3 2 2 1 1 1 1 1 1 1 1 1 1 1 1 1 1 1 2 2 1 1 1 2 1 1 1 1 1 1 1 1 2 2 2 2 2
3 3 3 3 2 2 3 3 3 2 2 2 2 1 1 1 1 1 1 1 2 2 1 1 2 2 2 1 1 1 1 1 1 1 1 1 1 1 1 2 2 2 2 3
2 2 2 2 2 2 2 3 3 2 2 2 2 2 1 1 1 1 1 1 1 2 1 1 2 2 2 1 1 1 0 0 0 0 1 1 1 2 2 2 2 3 3 3
2 2 2 2 2 2 2 2 2 2 2 2 2 2 2 1 1 1 0 1 1 2 1 0 1 1 1 1 1 1 1 1 2 2 2 2 2 2 2 3 3 3 3 3
2 2 2 2 2 2 2 2 2 2 2 1 2 2 2 1 1 1 1 1 1 1 1 1 1 1 1 1 1 1 1 1 1 2 2 2 2 2 3 3 3 3 3 4
Wind_Direction
290 293 257 251 234 222 225 227 231 251 251 247 259 76 84 74 71 71 69 57 47 35 35 39 29 14 357 341 341 324 283 222 225 233 248 282 282 265 264 253 262 244 276 296
281 286 277 262 247 227 233 238 247 263 275 4 56 54 65 74 77 77 50 27 24 18 19 22 12 347 333 331 337 336 312 261 217 192 198 189 247 259 310 315 316 281 272 292
252 274 307 262 237 222 224 231 231 242 252 12 36 21 53 102 97 68 27 8 6 4 359 354 343 332 321 325 338 342 325 320 218 187 178 178 229 107 290 311 326 338 314 304
238 243 238 244 247 205 212 224 220 258 280 242 239 224 109 92 75 42 23 9 1 354 350 344 337 339 345 351 1 1 348 334 317 149 142 135 104 62 326 343 346 344 325 325
211 234 261 274 315 204 210 250 239 245 294 345 360 75 57 43 35 32 25 19 10 360 350 343 342 344 11 12 6 19 24 17 12 53 136 140 121 316 306 329 352 7 15 10
237 238 242 297 330 342 76 279 313 283 237 269 58 172 280 5 23 40 43 34 22 12 9 359 349 356 18 19 14 11 10 6 4 9 103 119 119 51 24 25 14 39 27 14
240 244 266 348 348 33 140 273 329 338 3 81 177 249 344 29 26 36 40 29 25 24 14 0 353 5 18 21 5 354 9 23 21 22 76 84 81 64 56 54 51 46 39 26
224 233 254 6 43 76 298 332 350 10 27 32 24 36 47 45 34 33 35 27 25 30 15 4 2 13 20 14 358 9 34 46 45 40 55 66 78 65 56 60 55 51 48 32
211 227 334 50 14 353 359 1 4 4 14 32 47 27 35 35 38 34 30 25 23 30 18 8 7 15 20 3 5 24 45 50 52 51 58 69 83 75 57 56 56 53 55 47
262 289 337 17 20 19 17 13 9 15 15 25 33 33 32 34 35 35 21 16 17 25 26 12 9 16 15 9 16 42 56 52 52 60 60 59 66 74 71 60 60 59 56 55
267 297 353 13 7 359 8 15 19 19 18 19 35 26 26 23 29 34 17 11 16 22 26 13 12 19 18 14 23 46 57 56 55 58 68 63 60 61 69 64 77 76 69 92
268 304 294 302 342 357 10 4 2 8 7 14 23 31 26 20 21 28 22 16 21 22 25 17 16 24 20 16 28 50 59 55 56 57 61 71 71 60 54 59 57 55 55 59
315 328 335 326 342 1 1 351 349 354 1 11 16 18 27 23 22 25 21 23 22 15 14 18 26 33 21 21 37 52 60 56 52 53 59 64 72 77 62 48 54 56 53 52
360 12 355 345 340 355 5 4 6 10 11 23 21 20 25 27 23 21 15 11 16 18 17 19 34 32 19 24 42 52 57 59 59 58 59 60 59 64 71 68 50 40 40 45
353 352 317 326 355 6 10 13 12 5 4 11 14 14 16 18 8 354 351 1 25 30 24 27 35 24 16 28 42 50 57 58 56 57 59 60 58 58 58 61 61 48 37 31
333 351 14 16 2 356 359 358 351 336 341 352 359 0 2 2 351 341 351 13 38 30 21 27 26 17 16 29 40 49 56 62 63 63 63 62 59 60 57 54 53 50 40 25
341 313 315 313 318 325 327 326 326 325 330 337 337 347 355 356 357 5 16 17 30 33 29 35 27 21 21 28 41 53 56 54 55 61 63 62 61 60 56 54 47 39 26 14
279 265 260 260 271 295 315 329 335 332 318 316 335 340 338 355 360 3 11 26 44 39 32 30 29 26 30 32 40 53 62 62 60 65 66 66 62 55 55 54 43 32 15 8
329 321 313 298 294 292 303 315 326 328 330 335 341 335 338 352 350 13 31 48 50 34 17 29 30 31 34 32 37 52 59 61 57 57 63 62 56 51 52 47 36 23 13 7
344 347 344 337 350 354 330 328 336 339 338 354 20 19 9 360 8 24 41 35 11 4 16 22 29 31 32 34 37 52 61 65 67 62 57 57 58 51 43 32 23 9 1 354
335 343 348 358 360 2 352 339 336 332 335 353 37 310 331 354 11 23 35 353 358 27 28 23 28 29 37 41 41 54 59 63 68 67 60 53 46 39 26 13 3 354 349 345
336 343 346 349 354 348 344 343 338 334 337 350 4 18 37 359 359 359 338 278 307 347 4 19 28 21 26 33 40 57 57 54 54 54 51 44 33 14 357 348 341 337 333 328
340 339 340 337 334 332 343 348 344 338 335 329 322 303 273 275 272 242 286 317 332 344 356 344 347 8 28 32 50 59 57 49 46 41 31 21 1 340 330 327 325 322 318 319
345 346 337 336 349 355 349 346 350 350 344 334 329 316 291 291 319 322 287 289 324 334 329 321 357 16 26 33 56 64 62 47 32 8 351 334 322 316 311 309 309 310 311 313
341 340 337 342 346 340 340 346 357 3 4 1 357 355 344 306 279 305 329 314 318 336 330 330 358 12 22 30 44 41 26 340 326 305 292 292 298 301 300 299 300 301 304 305
331 323 318 318 321 325 329 336 341 342 350 355 355 2 13 25 28 358 351 343 338 333 338 346 6 8 18 20 8 353 341 322 321 313 300 295 297 297 295 295 297 295 295 298
341 342 344 349 351 347 342 342 342 337 338 341 341 347 7 12 14 15 10 351 344 348 357 11 19 9 354 339 322 311 301 290 285 286 292 293 290 288 290 291 292 296 301 301
Height
1438 1434 1435 1436 1436 1436 1437 1435 1435 1428 1427 1428 1428 1429 1430 1431 1432 1433 1434 1434 1435 1435 1435 1435 1435 1435 1434 1435 1435 1435 1435 1435 1435 1436 1436 1436 1436 1435 1435 1435 1435 1434 1434 1434
1440 1434 1431 1432 1432 1432 1431 1430 1429 1428 1427 1427 1428 1429 1431 1432 1432 1433 1434 1434 1434 1434 1434 1434 1433 1433 1433 1433 1432 1432 1432 1433 1433 1433 1434 1434 1433 1433 1433 1433 1432 1432 1432 1431
1440 1435 1433 1434 1430 1430 1429 1427 1428 1429 1430 1428 1429 1429 1430 1431 1432 1433 1434 1434 1433 1433 1433 1432 1432 1432 1431 1431 1430 1430 1430 1430 1431 1431 1431 1431 1431 1431 1431 1430 1430 1430 1429 1429
1441 1439 1440 1429 1422 1423 1425 1425 1426 1427 1427 1427 1428 1429 1430 1431 1431 1432 1432 1433 1432 1432 1431 1431 1431 1430 1430 1429 1429 1428 1428 1428 1429 1429 1429 1429 1429 1429 1429 1429 1429 1428 1428 1427
1440 1437 1430 1425 1423 1423 1425 1426 1425 1425 1426 1426 1427 1427 1429 1430 1430 1431 1432 1431 1431 1430 1430 1429 1429 1428 1427 1427 1427 1426 1426 1426 1426 1427 1427 1427 1427 1427 1427 1427 1427 1426 1426 1426
1438 1434 1432 1428 1423 1420 1423 1427 1423 1423 1424 1425 1426 1429 1430 1429 1429 1430 1430 1430 1429 1428 1428 1428 1427 1426 1425 1425 1424 1424 1424 1424 1425 1425 1425 1425 1426 1426 1426 1426 1425 1425 1425 1425
1437 1435 1429 1428 1424 1422 1431 1430 1423 1422 1423 1424 1425 1427 1428 1427 1427 1428 1428 1428 1427 1427 1426 1426 1425 1424 1423 1423 1423 1422 1422 1423 1423 1423 1424 1424 1424 1425 1425 1424 1424 1424 1424 1424
1436 1436 1434 1429 1427 1429 1429 1426 1423 1422 1423 1424 1424 1425 1425 1426 1426 1426 1426 1426 1426 1425 1425 1424 1423 1423 1422 1421 1421 1421 1421 1421 1421 1421 1422 1422 1423 1423 1423 1423 1423 1422 1422 1423
1433 1434 1429 1428 1428 1428 1427 1426 1424 1423 1423 1423 1423 1424 1424 1425 1425 1425 1425 1425 1425 1424 1423 1423 1422 1421 1420 1420 1420 1420 1420 1420 1420 1420 1421 1421 1421 1421 1421 1422 1421 1421 1421 1421
1430 1429 1428 1428 1428 1427 1427 1426 1425 1424 1423 1423 1423 1423 1423 1424 1424 1424 1424 1424 1423 1423 1422 1421 1421 1421 1420 1419 1419 1419 1419 1419 1419 1419 1419 1420 1420 1420 1420 1420 1420 1421 1421 1421
1430 1429 1428 1428 1428 1427 1426 1425 1424 1424 1423 1423 1422 1422 1422 1422 1423 1423 1422 1422 1422 1421 1421 1420 1420 1420 1419 1418 1418 1418 1418 1418 1418 1418 1418 1419 1419 1419 1419 1420 1420 1420 1420 1420
1431 1429 1429 1428 1427 1427 1425 1424 1424 1423 1422 1422 1422 1421 1421 1421 1422 1422 1421 1421 1421 1420 1420 1420 1419 1419 1418 1418 1417 1417 1417 1417 1417 1418 1418 1418 1418 1419 1419 1420 1420 1421 1421 1421
1429 1428 1427 1427 1426 1426 1425 1424 1423 1422 1421 1421 1421 1421 1421 1421 1421 1421 1421 1420 1420 1419 1419 1419 1419 1418 1418 1417 1417 1416 1416 1417 1417 1417 1417 1417 1418 1418 1419 1420 1421 1421 1421 1421
1428 1427 1426 1426 1425 1425 1424 1423 1422 1421 1421 1420 1420 1420 1420 1420 1420 1420 1419 1419 1419 1419 1418 1418 1418 1418 1417 1417 1417 1416 1416 1417 1417 1417 1417 1418 1418 1418 1418 1419 1420 1420 1421 1421
1427 1426 1426 1425 1424 1423 1423 1422 1421 1420 1419 1419 1419 1419 1418 1418 1418 1418 1419 1419 1418 1418 1418 1418 1418 1417 1417 1417 1416 1416 1416 1417 1417 1417 1417 1418 1418 1418 1419 1419 1420 1420 1421 1421
1425 1425 1424 1424 1423 1422 1421 1420 1419 1418 1418 1417 1417 1417 1417 1417 1417 1417 1418 1418 1417 1417 1417 1417 1417 1417 1417 1416 1416 1416 1416 1417 1417 1417 1417 1418 1418 1419 1419 1420 1420 1420 1420 1420
1423 1423 1422 1422 1421 1420 1419 1419 1418 1417 1416 1416 1416 1416 1416 1416 1416 1416 1416 1417 1417 1417 1417 1417 1417 1417 1417 1416 1416 1416 1416 1417 1417 1417 1417 1418 1418 1419 1419 1420 1420 1420 1420 1421
1422 1421 1420 1420 1419 1418 1417 1417 1416 1415 1415 1415 1414 1414 1414 1414 1414 1414 1415 1415 1415 1416 1416 1416 1416 1416 1416 1416 1416 1416 1416 1416 1417 1417 1417 1418 1418 1419 1419 1419 1420 1420 1420 1420
1419 1419 1418 1418 1417 1416 1415 1414 1414 1414 1413 1413 1412 1412 1412 1413 1413 1413 1413 1413 1413 1414 1415 1415 1415 1415 1416 1416 1416 1416 1416 1416 1417 1417 1417 1418 1418 1419 1419 1419 1419 1419 1419 1419
1417 1417 1416 1415 1415 1414 1413 1412 1412 1412 1411 1411 1411 1411 1411 1411 1412 1412 1412 1412 1412 1413 1414 1414 1414 1414 1415 1415 1415 1415 1416 1416 1416 1417 1417 1418 1418 1418 1418 1418 1418 1418 1417 1417
1415 1414 1413 1413 1412 1412 1412 1411 1410 1410 1409 1409 1409 1409 1409 1410 1410 1410 1410 1410 1411 1412 1413 1413 1413 1413 1414 1414 1415 1415 1415 1415 1415 1416 1416 1417 1417 1417 1417 1417 1417 1416 1416 1416
1413 1412 1412 1411 1411 1410 1410 1410 1409 1408 1408 1408 1408 1408 1408 1408 1408 1409 1409 1410 1410 1411 1411 1411 1412 1412 1413 1413 1413 1414 1414 1414 1415 1415 1415 1415 1415 1415 1415 1415 1415 1415 1414 1414
1412 1411 1410 1410 1409 1409 1408 1408 1408 1407 1406 1406 1406 1406 1406 1406 1407 1407 1407 1408 1409 1409 1410 1410 1410 1411 1411 1412 1412 1412 1413 1413 1413 1414 1414 1414 1414 1414 1414 1413 1413 1413 1412 1411
1410 1410 1409 1409 1408 1407 1407 1406 1406 1406 1405 1405 1405 1405 1405 1405 1405 1406 1406 1406 1407 1407 1407 1408 1409 1409 1410 1410 1410 1411 1411 1411 1412 1412 1412 1412 1412 1412 1412 1411 1411 1410 1410 1409
1409 1408 1408 1407 1407 1406 1406 1405 1405 1404 1404 1403 1403 1403 1404 1404 1403 1403 1404 1404 1404 1405 1406 1406 1407 1407 1408 1408 1408 1409 1409 1409 1409 1410 1410 1410 1410 1410 1409 1409 1408 1408 1407 1407
1408 1407 1407 1406 1406 1405 1405 1404 1403 1403 1402 1402 1401 1402 1402 1402 1401 1401 1402 1402 1402 1403 1403 1404 1404 1405 1405 1406 1406 1406 1407 1407 1407 1408 1408 1407 1407 1407 1407 1406 1406 1405 1405 1404
1407 1406 1405 1405 1405 1404 1404 1403 1402 1402 1401 1400 1400 1400 1400 1399 1399 1399 1399 1399 1400 1400 1400 1401 1402 1402 1403 1403 1404 1404 1404 1405 1405 1405 1405 1405 1405 1404 1404 1404 1403 1403 1402 1401